Tracking 18840 objects as of 19-November-2017
HD Live streaming from Space Station
objects crossing your sky now

FENGYUN 1C DEB

Track FENGYUN 1C DEB now!
10-day predictions


NORAD ID: 31302
Int'l Code: 1999-025BPL
Perigee: 834.8 km
Apogee: 885.9 km
Inclination: 99.4 °
Period: 102.0 minutes
Semi major axis: 7231 km
RCS: 0.011 m2 (small)
Launch date: May 10, 1999
Source: People's Republic of China (PRC)
Launch site: Taiyaun Space Center, China (TSC)

Note: This is SATELLITE DEBRIS
aabbcc
Your satellite tracking list
Your tracking list is empty




NASA's NSSDC Master Catalog

Two Line Element Set (TLE):
1 31302U 99025BPL 17321.01600225  .00000901  00000-0  51750-3 0  9995
2 31302  99.4379 159.4338 0035293  32.8824 122.0002 14.11803670547020
Source of the keplerian elements: AFSPC